Location: Dzierzno
(50.6159°N, 19.2852°E)
Time: 23:47:53
(UTC+00:00)

ATLAS 2AS CENTAUR R/B - Pass Details

Date: 18 November 2025
Orbit: 1047 x 1164 km, 63.7° (Epoch: 05 December)

Event Time Altitude Azimuth Distance (km) Brightness Sun altitude
Rises 19:23:02 0° 314° (NW) 3,839 6.4 -42.1°
Reaches altitude 10° 19:25:55 10° 305° (NW) 2,873 5.6 -42.5°
Enters shadow 19:29:41 28° 278° (W) 1,870 4.3 -43.1°
